Waupaca, WI

9:17 AM CST on November 20, 2019 (GMT -0600)
Waupaca Municipal

Weather History for KPCZ - September, 2019

Change the Weather History Date:

Wednesday, September 25, 2019

  Actual Average Record
Temperature  
Mean Temperature 66 °F -  
Max Temperature 72 °F 66 °F 90 °F (2017)
Min Temperature 59 °F 43 °F 32 °F (1985)
Growing Degree Days 16 (Base 50)    
Moisture  
Dew Point 54 °F    
Average Humidity 68    
Maximum Humidity 97    
Minimum Humidity 35    
Precipitation  
Precipitation 0.09 in - - ()
Sea Level Pressure  
Sea Level Pressure 29.67 in    
Wind  
Wind Speed 8 mph (WSW)    
Max Wind Speed 20 mph    
Max Gust Speed 26 mph    
Visibility 10 miles    
Events Rain    
Averages and records for this station are not official NWS values.
T = Trace of Precipitation, MM = Missing Value Source: NWS Daily Summary

Daily Weather History Graph

Daily Weather History Graph

Search for Another Location

Airport or City:

Astronomy

Sep. 25, 2019 Rise Set
Actual Time 6:46 AM CDT 6:48 PM CDT
Civil Twilight 6:17 AM CDT 7:17 PM CDT
Nautical Twilight 5:43 AM CDT 7:50 PM CDT
Astronomical Twilight 5:09 AM CDT 8:25 PM CDT
Moon 2:27 AM CDT (9/25) 5:30 PM CDT (9/25)
Length of Visible Light 12h 59m
Length of Day
12h 01m
Waning Crescent, 14% of the Moon is Illuminated
Sep 25
Waning Crescent
Sep 28
New
Oct 5
First Quarter
Oct 13
Full
Oct 21
Last Quarter

Hourly Weather History & Observations

Time (CDT) Temp. Dew Point Humidity Pressure Visibility Wind Dir Wind Speed Gust Speed Precip Events Conditions
12:15 AM 66.7 °F 60.4 °F 80% 29.61 in 7.0 mi SSE 4.6 mph - N/A Rain Rain
12:35 AM 65.5 °F 61.5 °F 87% 29.61 in 7.0 mi South 4.6 mph - 0.01 in Rain Rain
12:55 AM 64.6 °F 61.5 °F 90% 29.61 in 10.0 mi SSW 5.8 mph - 0.01 in Rain Light Rain
1:15 AM 64.4 °F 61.7 °F 91% 29.62 in 10.0 mi South 6.9 mph - 0.02 in Rain Light Rain
1:35 AM 64.4 °F 61.9 °F 92% 29.62 in 10.0 mi SSW 4.6 mph - 0.02 in   Drizzle
1:55 AM 64.4 °F 62.2 °F 93% 29.62 in 7.0 mi South 6.9 mph - 0.05 in Rain Rain
2:15 AM 64.4 °F 62.4 °F 93% 29.60 in 10.0 mi South 4.6 mph - 0.02 in Rain Light Rain
2:35 AM 64.0 °F 62.1 °F 93% 29.57 in 10.0 mi SSE 5.8 mph - 0.02 in   Mostly Cloudy
2:55 AM 64.0 °F 62.1 °F 93% 29.57 in 10.0 mi SSE 8.1 mph - 0.02 in   Scattered Clouds
3:35 AM 62.8 °F 61.0 °F 94% 29.56 in 10.0 mi South 4.6 mph - N/A   Scattered Clouds
3:55 AM 63.1 °F 61.7 °F 95% 29.56 in 10.0 mi South 5.8 mph - N/A   Mostly Cloudy
4:15 AM 63.1 °F 61.7 °F 95% 29.56 in 10.0 mi South 5.8 mph - N/A   Mostly Cloudy
4:35 AM 64.0 °F 62.4 °F 94% 29.55 in 10.0 mi SSW 6.9 mph - N/A   Scattered Clouds
4:55 AM 64.4 °F 62.6 °F 94% 29.56 in 10.0 mi SW 6.9 mph - N/A   Mostly Cloudy
5:15 AM 64.8 °F 63.5 °F 96% 29.57 in 10.0 mi SW 6.9 mph - N/A   Overcast
5:35 AM 64.8 °F 63.5 °F 96% 29.56 in 10.0 mi SW 5.8 mph - 0.01 in   Scattered Clouds
5:55 AM 64.8 °F 63.5 °F 96% 29.57 in 10.0 mi SW 3.5 mph - 0.01 in   Scattered Clouds
6:15 AM 64.8 °F 63.7 °F 96% 29.58 in 10.0 mi WSW 4.6 mph - N/A   Mostly Cloudy
6:35 AM 64.0 °F 62.8 °F 96% 29.59 in 10.0 mi WSW 3.5 mph - N/A   Mostly Cloudy
6:55 AM 64.0 °F 63.0 °F 96% 29.60 in 7.0 mi WSW 4.6 mph - N/A   Scattered Clouds
7:15 AM 64.0 °F 63.0 °F 96% 29.60 in 7.0 mi WSW 6.9 mph - N/A   Scattered Clouds
7:35 AM 64.4 °F 63.5 °F 97% 29.61 in 10.0 mi WSW 9.2 mph - N/A   Clear
7:55 AM 65.3 °F 64.2 °F 96% 29.61 in 10.0 mi WSW 8.1 mph - N/A   Clear
8:15 AM 66.9 °F 64.9 °F 93% 29.61 in 10.0 mi SW 6.9 mph - N/A   Clear
8:35 AM 67.5 °F 64.2 °F 89% 29.61 in 10.0 mi WSW 9.2 mph - N/A   Mostly Cloudy
8:55 AM 67.5 °F 63.0 °F 85% 29.62 in 10.0 mi West 13.8 mph 19.6 mph N/A   Mostly Cloudy
9:15 AM 68.0 °F 61.5 °F 80% 29.63 in 10.0 mi West 12.7 mph 19.6 mph N/A   Scattered Clouds
9:35 AM 69.3 °F 61.2 °F 75% 29.63 in 10.0 mi WSW 12.7 mph 18.4 mph N/A   Scattered Clouds
9:55 AM 70.0 °F 60.3 °F 71% 29.64 in 10.0 mi WSW 15.0 mph - N/A   Clear
10:15 AM 69.8 °F 59.2 °F 69% 29.65 in 10.0 mi West 18.4 mph - N/A   Clear
10:35 AM 70.7 °F 59.2 °F 67% 29.66 in 10.0 mi WSW 19.6 mph 25.3 mph N/A   Scattered Clouds
10:55 AM 71.1 °F 58.1 °F 63% 29.67 in 10.0 mi West 13.8 mph 24.2 mph N/A   Scattered Clouds
11:15 AM 71.1 °F 57.0 °F 61% 29.67 in 10.0 mi West 10.4 mph 24.2 mph N/A   Scattered Clouds
11:35 AM 72.0 °F 55.9 °F 57% 29.67 in 10.0 mi West 18.4 mph 24.2 mph N/A   Scattered Clouds
11:55 AM 71.2 °F 53.1 °F 53% 29.68 in 10.0 mi WNW 13.8 mph 26.5 mph N/A   Scattered Clouds
12:15 PM 70.7 °F 53.2 °F 54% 29.69 in 10.0 mi West 11.5 mph 20.7 mph N/A   Clear
12:35 PM 72.7 °F 52.2 °F 48% 29.69 in 10.0 mi West 12.7 mph 26.5 mph N/A   Scattered Clouds
12:55 PM 72.7 °F 51.3 °F 47% 29.69 in 10.0 mi West 15.0 mph 20.7 mph N/A   Scattered Clouds
1:15 PM 72.9 °F 50.7 °F 46% 29.69 in 10.0 mi West 18.4 mph 23.0 mph N/A   Mostly Cloudy
1:35 PM 71.8 °F 50.2 °F 46% 29.69 in 10.0 mi West 10.4 mph 18.4 mph N/A   Scattered Clouds
1:55 PM 71.4 °F 47.7 °F 43% 29.68 in 10.0 mi WNW 15.0 mph 23.0 mph N/A   Scattered Clouds
2:15 PM 71.4 °F 44.8 °F 38% 29.69 in 10.0 mi West 17.3 mph 21.9 mph N/A   Scattered Clouds
2:35 PM 72.5 °F 44.1 °F 36% 29.69 in 10.0 mi West 19.6 mph 26.5 mph N/A   Clear
2:55 PM 71.8 °F 43.3 °F 36% 29.69 in 10.0 mi West 16.1 mph 21.9 mph N/A   Clear
3:15 PM 72.9 °F 44.6 °F 36% 29.70 in 10.0 mi West 15.0 mph 24.2 mph N/A   Scattered Clouds
3:35 PM 72.9 °F 43.7 °F 35% 29.70 in 10.0 mi West 11.5 mph 19.6 mph N/A   Scattered Clouds
3:55 PM 71.4 °F 43.3 °F 36% 29.71 in 10.0 mi West 13.8 mph 24.2 mph N/A   Mostly Cloudy
4:15 PM 70.3 °F 43.0 °F 37% 29.71 in 10.0 mi West 13.8 mph 21.9 mph N/A   Scattered Clouds
4:35 PM 70.9 °F 45.1 °F 40% 29.72 in 10.0 mi West 12.7 mph 17.3 mph N/A   Clear
4:55 PM 69.3 °F 45.0 °F 42% 29.72 in 10.0 mi West 8.1 mph - N/A   Clear
5:15 PM 68.5 °F 43.7 °F 41% 29.72 in 10.0 mi West 10.4 mph - N/A   Clear
5:35 PM 67.5 °F 45.5 °F 45% 29.73 in 10.0 mi WSW 6.9 mph - N/A   Clear
5:55 PM 66.2 °F 46.0 °F 48% 29.74 in 10.0 mi WSW 6.9 mph - N/A   Clear
6:15 PM 65.7 °F 47.7 °F 52% 29.73 in 10.0 mi SW 5.8 mph - N/A   Clear
6:55 PM 64.4 °F 47.8 °F 55% 29.73 in 10.0 mi SW 5.8 mph - N/A   Clear
7:15 PM 63.9 °F 49.3 °F 59% 29.74 in 10.0 mi SW 5.8 mph - N/A   Clear
7:35 PM 64.0 °F 48.4 °F 57% 29.74 in 10.0 mi WSW 8.1 mph - N/A   Clear
7:55 PM 63.1 °F 48.4 °F 59% 29.75 in 10.0 mi SW 6.9 mph - N/A   Clear
8:15 PM 63.1 °F 48.2 °F 58% 29.76 in 10.0 mi WSW 9.2 mph - N/A   Clear
8:35 PM 63.0 °F 47.8 °F 58% 29.77 in 10.0 mi WSW 10.4 mph - N/A   Clear
8:55 PM 63.0 °F 47.3 °F 57% 29.77 in 10.0 mi WSW 11.5 mph - N/A   Clear
9:15 PM 62.2 °F 47.3 °F 58% 29.76 in 10.0 mi WSW 8.1 mph - N/A   Clear
9:35 PM 61.3 °F 47.3 °F 60% 29.78 in 10.0 mi WSW 8.1 mph - N/A   Clear
9:55 PM 61.3 °F 47.3 °F 60% 29.79 in 10.0 mi WSW 10.4 mph - N/A   Clear
10:15 PM 61.7 °F 46.9 °F 58% 29.79 in 10.0 mi WSW 10.4 mph - N/A   Clear
10:35 PM 61.2 °F 46.8 °F 59% 29.79 in 10.0 mi WSW 8.1 mph - N/A   Clear
10:55 PM 60.3 °F 46.6 °F 61% 29.79 in 10.0 mi WSW 8.1 mph - N/A   Clear
11:15 PM 59.5 °F 46.8 °F 63% 29.79 in 10.0 mi WSW 9.2 mph - N/A   Clear
11:35 PM 59.5 °F 46.4 °F 62% 29.80 in 10.0 mi West 10.4 mph 17.3 mph N/A   Clear
11:55 PM 59.4 °F 46.4 °F 62% 29.81 in 10.0 mi West 8.1 mph - N/A   Clear